Powrót do katalogu

TIUNGSAT 1

AktywnyNaukaVLEO
NORAD 26548·PAYLOAD·🇲🇾 Malaysia

Wystrzelony Sep 26, 2000 z Baikonur Cosmodrome

Loading…

Następne Przeloty (najbliższe 24 godziny)

TLE

ŚwieżeSource: Space-Track

Epoka: Sep 14, 2026, 20:36 UTC

1 26548U 00057D   26257.85839690  .00001991  00000-0  16157-3 0  9990
2 26548  64.5453 199.9869 0045802 280.0556  79.5393 15.01975503409690

Śledź TIUNGSAT 1 w czasie rzeczywistym z AllMySat

Download on the App Store